Regional Weather Roundup
Issued by NWS Pendleton, OR

Home | Current Version | Previous Version | Text Only | Print | Product List | Glossary On
Versions: 1 2 3 4 5 6 7 8 9 10 11 12 13 14 15 16 17 18 19 20 21 22 23 24 25 26 27 28 29 30 31 32 33 34 35 36 37 38 39 40 41 42 43 44 45 46 47 48 49 50
000
ASUS46 KPDT 242210
RWRPDT
PENDLETON REGIONAL WEATHER ROUNDUP
NATIONAL WEATHER SERVICE PENDLETON OREGON
300 PM PDT SUN MAY 24 2015

NOTE: FAIR INDICATES FEW OR NO CLOUDS BELOW 12,000 FEET WITH NO
SIGNIFICANT WEATHER AND/OR OBSTRUCTIONS TO VISIBILITY.

# INDICATES UNOFFICIAL STATION AND DATA

WAZ520-242310-
EAST SLOPES OF WASHINGTON CASCADES

CITY            SKY/WX      TMP DP  RH  WIND    PRES   REMARKS
#BULLFROG 2SW   N/A         61  47  60  W6      27.58
#BUMPING DAM    N/A         64  N/A N/A S1      N/A
#CLE ELUM HS    N/A         63  48  58  SW12    29.91F
#CLE ELUM LAKE  N/A         64  50  60  SW1     29.89F
#CLIFFDEL 2NW   N/A         65  45  48  NW5     N/A
#EASTON DOT     N/A         59  38  45  N5      N/A
#GLENWOOD       N/A         72  57  59  S8      29.87F
#MANASTASH CYN  N/A         68  50  53  CALM    29.91F
#NELSON         N/A         63  50  62  N2      29.93F
#NELSON 3SW     N/A         65  49  56  NE2     30.11F
#NILE           N/A         69  47  45  W3      29.15F
#PEOH POINT     N/A         57  46  67  SW7     N/A
#RONALD 2NW     N/A         64  46  52  SW2     29.85F
#SNOWDEN        N/A         63  37  38  NW5     N/A
#TEANAWAY 4NE   N/A         67  54  63  W8      N/A
#TROUT LAKE 1NE N/A         70  53  55  W10     29.89F
$$

WAZ521-242310-
SIMCOE HIGHLANDS

CITY            SKY/WX      TMP DP  RH  WIND    PRES   REMARKS
#SATUS PASS DOT N/A         70  40  34  CALM    N/A
#CENTERVILLE 4W N/A         69  51  53  NW18    29.67F
#CENTERVILLE 1SWN/A         69  51  53  W18     29.85F
#GOLDENDALE     N/A         72  51  48  W12     N/A
#GOLDENDALE 1NE N/A         71  40  32  SW6     N/A
#GOLDENDALE 5WNWN/A         70  53  55  SW15    29.86F
#GOODNOE HILLS  N/A         77  51  40  W17     N/A
#LYLE 6NE       N/A         64  51  63  S10     29.91F
$$

WAZ026-242310-
KITTITAS VALLEY

CITY            SKY/WX      TMP DP  RH  WIND    PRES   REMARKS
ELLENSBURG AP   MOCLDY      75  51  43  NW17G28 29.90F
YTC-OPS AREA    N/A         74  43  33  SW7     29.92F
#ELLENSBURG CWU N/A         73  50  44  NW15    29.80F
#ELLENSBURG 3NE N/A         70  53  55  N9      29.90F
#KITTITAS 3S    N/A         72  55  55  W5      29.82F
#THORP 6N       N/A         63  49  60  W21G32  29.88F
$$

WAZ027-242310-
YAKIMA VALLEY

CITY            SKY/WX      TMP DP  RH  WIND    PRES   REMARKS
SUNNYSIDE AP    PTCLDY      79  50  36  SW3     29.86F
YAKIMA AIRPORT  PTCLDY      82  52  35  E7      29.86F
#DONALD 2NE     N/A         87  29  12  S1      28.71F
#GRANDVIEW      N/A         80  50  35  E3      29.83F
#MABTON         N/A         80  54  41  E5      29.84F
#NACHES 2SW     N/A         73  50  44  W6      29.90F
#TERRACE HTS    N/A         82  49  32  S2      29.78F
#TOPPENISH      N/A         79  52  39  E3      29.74F
#WAPATO 4NE     N/A         87  29  12  S1      28.71F
#WEST VALLEY    N/A         79  50  36  SW1     29.80F
#WHITE SWAN 5E  N/A         77  55  47  NE2     29.83F
#WILEY CITY 3W  N/A         81  45  28  CALM    29.84F
$$

WAZ028-242310-
LOWER COLUMBIA BASIN...WASHINGTON

CITY            SKY/WX      TMP DP  RH  WIND    PRES   REMARKS
HANFORD         CLOUDY      83  48  30  S6      29.85F
PASCO           PTCLDY      81  52  37  VRB5    29.85F
RICHLAND AWOS   PTCLDY      82  52  35  S3      29.86F
#BASIN CITY 5SW N/A         79  61  54  SE3     29.85F
#BENTON CITY    N/A         80  51  36  CALM    29.74F
#CONNELL 5N     N/A         79  53  41  W7      29.83F
#CONNELL 5NW    N/A         77  54  45  SW6     29.80F
#ELTOPIA        N/A         82  56  41  E3      29.80F
#ELTOPIA 6NW    N/A         76  58  54  SW6     28.85F
#KAHLOTUS       N/A         78  50  38  W14     29.83F
#KENNEWICK      N/A         61  47  60  W6      27.58
#KENNEWICK 3S   N/A         81  56  42  CALM    29.84F
#PASCO-BROADMOORN/A         86  56  36  E1      29.73F
#PATERSON       N/A         78  52  40  W5      29.83F
#PROSSER DOT    N/A         81  46  29  SW7     N/A
#PROSSER        N/A         81  47  30  S5      29.83F
#SAGEMOOR 2W    N/A         82  59  46  CALM    29.70F
#TOUCHET 2S     N/A         79  57  47  N1      29.81F
#WEST PASCO     N/A         80  59  49  W1      29.83F
$$

WAZ029-242310-
FOOTHILLS OF THE BLUES...WASHINGTON

CITY            SKY/WX      TMP DP  RH  WIND    PRES   REMARKS
WALLA WALLA AP  SUNNY       77  49  37  W7      29.88F
#DAYTON SCHOOL  N/A         75  49  40  S1      29.91F
#LOWDEN 2SE     N/A         79  57  47  N1      29.82F
#PLEASANT VIEW 1N/A         77  51  40  E3      29.88F
#PRESCOTT       N/A         79  55  44  CALM    29.83F
#SUDBURY        N/A         80  N/A N/A CALM    N/A
#WHITMAN COLLEGEN/A         76  52  43  SW10    29.89F
#WAITSBURG 8N   N/A         80  28  15  S5      29.74F
#WALLA WALLA U  N/A         79  53  41  SW1     29.85F
#WHITMAN MISSIONN/A         78  56  47  CALM    29.85F
$$

WAZ030-242310-
BLUE MOUNTAINS...WASHINGTON

CITY            SKY/WX      TMP DP  RH  WIND    PRES   REMARKS
#DIXIE 5SE      N/A         66  48  52  W1      29.89F
$$

ORZ009-041-WAZ024-242310-
COLUMBIA RIVER GORGE

CITY            SKY/WX      TMP DP  RH  WIND    PRES   REMARKS
HOOD RIVER AP   PTCLDY      66  48  52  W12     29.99F
THE DALLES AP   PTCLDY      71  49  46  N26G37  29.92F
#ARLINGTON AIRPON/A         78  50  38  W13     32.40
#CELILO DOT     N/A         75  51  43  W9      N/A
#MARYHILL       N/A         75  49  40  W3      N/A
#MOSIER 1S      N/A         64  39  40  N13     29.94F
#MURDOCK        N/A         70  52  53  NW17G35 29.91F
#RUFUS DOT      N/A         76  51  42  N10G25  N/A

$$

ORZ510-242310-
NORTH CENTRAL OREGON

CITY            SKY/WX      TMP DP  RH  WIND    PRES   REMARKS
#CHENOWITH 1W   N/A         63  47  56  W28     N/A
#COW CYN RST AREN/A         73  46  38  W2      N/A
#DUFUR 9E       N/A         63  49  60  NW17    29.96F
#GRASS VALLEY 1SN/A         73  50  44  NW13    29.91F
#KENT DOT       N/A         74  40  29  NW6     N/A
#MAUPIN SCHOOL  N/A         81  55  41  NW2     29.90F
#MORO SCHOOL    N/A         68  56  65  NW15    29.95F
#SHANIKO 5WSW   N/A         71  37  29  W9      N/A
#SHANIKO 4NW    N/A         69  45  42  W5      29.99F
#TYGH VALLEY 2NEN/A         78  56  47  NW3     29.86F
#WAPANITIA AIRPON/A         74  52  46  W6      29.90F
#WASCO DOT      N/A         73  47  40  SW12    N/A
#WASCO 5NE      N/A         74  51  44  N12     29.88F
$$

ORZ511-242310-
CENTRAL OREGON

CITY            SKY/WX      TMP DP  RH  WIND    PRES   REMARKS
BEND AIRPORT    PTCLDY      73  41  31  N10     29.98F
MADRAS AIRPORT  PTCLDY      75  45  34  N9      29.98F
PRINEVILLE AP   PTCLDY      73  41  31  VRB6    29.96F
REDMOND AIRPORT PTCLDY      72  47  41  N13     29.97F
#BEND 1SW       N/A         72  46  39  NW1     N/A
#BEND-AWBREY    N/A         73  48  41  N5      29.91S
#BEND-KIM LN    N/A         75  48  38  NE1     29.96F
#CROOKED RVR RANN/A         73  51  46  N5      29.90F
#CULVER         N/A         74  49  41  NW3     29.92F
#LAKE BILLY CHINN/A         70  11  10  NW8     30.01F
#POWELL BUTTE 3EN/A         70  49  47  W7      N/A
#POWELL BUTTE   N/A         76  54  46  N5      29.61F
#PRINEVILLE 3N  N/A         74  50  43  N3      29.84F
#WARM SPRINGS   N/A         78  50  38  SW8     29.91S

$$


ORZ509-242310-
EAST SLOPES OF OREGON CASCADES

CITY            SKY/WX      TMP DP  RH  WIND    PRES   REMARKS
#BLUE BOX PASS  N/A         55   2  11  W3      N/A
#CAMP SHERMAN   N/A         73  51  46  E1      29.89S
#LA PINE 4NW    N/A         67  46  47  CALM    29.97F
#SISTERS AIRPOR N/A         72  56  57  N6      30.17S
#SISTERS ODOT   N/A         70  N/A N/A S8      N/A
#SISTERS 3N     N/A         71  50  47  SW3     29.99S
#SUNRIVER       N/A         69  46  44  W3      29.81F
#TUMALO 3W      N/A         65  46  50  N5      29.80S
#WANOGA BUTTE D N/A         53  46  77  W6      N/A

$$

ORZ044-242310-
LOWER COLUMBIA BASIN...OREGON

CITY            SKY/WX      TMP DP  RH  WIND    PRES   REMARKS
HERMISTON       PTCLDY      81  49  33  W7      29.86F
#BOARDMAN SCHOOLN/A         80  51  36  W3      29.86F
#ECHO 8SW       N/A         81  51  35  SW2     29.88F
#IONE SCHOOL    N/A         76  50  40  W7      29.86F
#IRRIGON 4NW    N/A         81  50  34  W7      N/A
#UMATILLA SCHOOLN/A         82  61  49  NW3     29.91F
#UMATILLA       N/A         80  52  38  N5      29.77F
$$

ORZ507-242310-
NORTHERN FOOTHILLS OF THE BLUES

CITY            SKY/WX      TMP DP  RH  WIND    PRES   REMARKS
PENDLETON AIRPT PTCLDY      77  47  35  W7      29.89F
#ADAMS 3WNW     N/A         74  57  55  CALM    29.85F
#ATHENA         N/A         75  53  46  CALM    29.87F
#CAYUSE         N/A         73  52  48  N5      29.85F
#HELIX SCHOOL   N/A         75  50  41  W7      29.85F
#HELIX 3N       N/A         74  49  41  SW7     29.88F
#HOLDMAN 6E     N/A         75  49  40  E5      29.67F
#M-F FERNDALE   N/A         83  55  38  CALM    29.87F
#M-F GROVE ELEM N/A         77  49  37  CALM    29.87F
#M-FREEWATER 5SEN/A         77  55  47  CALM    29.89F
#PENDLETON DNTN N/A         82  48  31  W3      29.87F
#PDT AQUATIC CTRN/A         81  56  42  CALM    29.92S
#PENDLETON 5NE  N/A         77  54  45  CALM    29.86F
#PDT SUNRIDGE   N/A         78  52  40  SW2     29.91F
#PENDLETON 7NW  N/A         77  55  47  CALM    29.82F
#PILOT ROCK     N/A         75  52  45  N1      29.92F
#TUTUILLA       N/A         76  53  45  W3      29.87F
#UMAPINE 2E     N/A         79  58  49  CALM    29.84F
#WESTON SCHOOL  N/A         73  47  40  CALM    29.86F

$$

ORZ508-242310-
SOUTHERN FOOTHILLS OF THE BLUES

CITY            SKY/WX      TMP DP  RH  WIND    PRES   REMARKS
#AJAX           N/A         73  44  35  W8      29.88F
#CONDON 5W      N/A         70  45  41  NW7     29.94F
#FOSSIL SCHOOL  N/A         73  48  41  W7      29.92F
#HEPPNER EOC    N/A         74  51  44  N2      29.80F
#HEPPNER 4NE    N/A         72  50  46  W6      29.87F
#LEXINGTON 2SE  N/A         77  51  40  CALM    29.88F
#RUGGS 5NE      N/A         75  50  41  N7      30.14S
#RUGGS 2SW      N/A         73  48  41  N7      29.88F

$$

ORZ502-503-242310-
BLUE MOUNTAINS

CITY            SKY/WX      TMP DP  RH  WIND    PRES   REMARKS
MEACHAM         PTCLDY      68  48  49  VRB5    29.98F
#BATTLE MTN DOT N/A         65  52  63  N2      N/A
#HEPPNER 15SE   N/A         66  50  56  NW1     29.90F
#LADD CYN SMT   N/A         66  34  30  W9      N/A
#LONG CREEK HS  N/A         67  51  56  CALM    29.92F
#N POWDER DOT   N/A         70  43  38  N16     N/A
#PIKES PEAK     N/A         63  51  65  SW8     27.99S
#TOLLGATE       N/A         59  48  67  CALM    29.95F
#TROY SCHOOL    N/A         80  48  33  E2      29.65F
#UKIAH          N/A         68  52  57  N8      29.90F
#WESTON 4E      N/A         68  53  59  SW3     29.83F
$$

ORZ505-242310-
JOHN DAY BASIN

CITY            SKY/WX      TMP DP  RH  WIND    PRES   REMARKS
JOHN DAY        PTCLDY      74  43  33  NW12    29.95F
#JOHN DAY KJDY  N/A         76  40  27  W5      29.90F
#DAYVILLE SCHOOLN/A         77  46  33  NW7     29.88F
#MITCHELL       N/A         74  54  50  CALM    30.09F
#MONUMENT HS    N/A         77  50  39  N2      29.90F
#MT. VERNON 5SE N/A         70  44  39  NW3     29.91F
$$

ORZ506-242310-
OCHOCO AND JOHN DAY HIGHLANDS

CITY            SKY/WX      TMP DP  RH  WIND    PRES   REMARKS
#BUCK CREEK DOT N/A         71  71  100 NW12    N/A
#PAULINA SCHOOL N/A         74  49  41  W3      29.93F
#PINE MTN OBS   N/A         59  42  53  N3      N/A
#PRAIRIE CITY   N/A         71  51  49  S1      29.78R
#SENECA         N/A         67  N/A N/A N6      N/A
#SENECA 9NW     N/A         69  40  35  NE2     29.84F
$$

ORZ049-242310-
GRANDE RONDE VALLEY

CITY            SKY/WX      TMP DP  RH  WIND    PRES   REMARKS
LA GRANDE       MOCLDY      73  45  37  NW10    29.91F
#COVE           N/A         73  58  59  W3      29.92F
#COVE SCHOOL    N/A         74  52  46  W2      29.89F
#ELGIN 3N       N/A         70  52  53  W1      29.90F
#ELGIN 1E       N/A         67  50  54  CALM    N/A
#ISLAND CITY 4N N/A         65  55  70  E1      30.06F
#LADD CYN DOT   N/A         72  43  35  NW8     N/A
#LA GRANDE ELEM N/A         70  55  59  N5      29.94F
#UNION 1S       N/A         71  48  44  W12     29.74F
$$

ORZ050-242310-
WALLOWA COUNTY

CITY            SKY/WX      TMP DP  RH  WIND    PRES   REMARKS
#ENTERPRISE HS  N/A         68  45  44  W3      29.96F
#IMNAHA SCHOOL  N/A         78  44  30  N2      29.87F
#IMNAHA 10S     N/A         71  50  47  E2      29.90F
#JOSEPH 3N      N/A         66  42  42  N1      29.98F
#JOSEPH 3W      N/A         64  45  50  CALM    29.83F
#LOSTINE        N/A         75  48  38  CALM    29.64F
#MT HOWARD 8000 N/A         47  40  76  NW1     30.11F
#PROMISE 1S     N/A         67  45  45  SW7     29.95F
#SHEEP RDG 7000 N/A         50  41  71  CALM    29.91F
#WALLOWA SCHOOL N/A         74  48  40  W2      30.71F



$$



USA.gov is the U.S. government's official web portal to all federal, state and local government web resources and services.